Weather History for Poughkeepsie, NY

Change the Weather History Date:

Sunday, May 12, 2013

  Actual Average Record
Temperature  
Mean Temperature 57 °F 58 °F  
Max Temperature 66 °F 70 °F 88 °F (2004)
Min Temperature 48 °F 45 °F 30 °F (1983)
Degree Days  
Heating Degree Days 8 8  
Month to date heating degree days 79 114  
Since 1 July heating degree days 5547 6053  
Cooling Degree Days 0 0  
Month to date cooling degree days 0 6  
Year to date cooling degree days 0 11  
Growing Degree Days 8 (Base 50)    
Moisture  
Dew Point 46 °F    
Average Humidity 63    
Maximum Humidity 100    
Minimum Humidity 25    
Precipitation  
Precipitation 0.00 in 0.13 in 1.62 in (1974)
Month to date precipitation 1.54 1.53  
Year to date precipitation 8.00 14.62  
Sea Level Pressure  
Sea Level Pressure 29.67 in    
Wind  
Wind Speed 8 mph (West)    
Max Wind Speed 22 mph    
Max Gust Speed 29 mph    
Visibility 9 miles    
Events      
T = Trace of Precipitation, MM = Missing Value Source: NWS Daily Summary

Daily Weather History Graph

Daily Weather History Graph

Search for Another Location

Airport:

Trip Planner

Search our weather history database for the weather conditions in past years. The results will help you decide how hot, cold, wet, or windy it might be!

Date:

Astronomy

May. 12, 2013 Rise Set
Actual Time 5:38 AM EDT 8:05 PM EDT
Civil Twilight 5:07 AM EDT 8:36 PM EDT
Nautical Twilight 4:28 AM EDT 9:16 PM EDT
Astronomical Twilight 3:45 AM EDT 9:59 PM EDT
Moon 7:31 AM EDT (5/12) 10:30 PM EDT (5/12)
Length of Visible Light 15h 29m
Length of Day
14h 26m
Waxing Crescent, 6% of the Moon is Illuminated
May 12
Waxing Crescent
May 18
First Quarter
May 25
Full
May 31
Last Quarter
Jun 8
New

Hourly Weather History & Observations

Time (EDT) Temp. Dew Point Humidity Pressure Visibility Wind Dir Wind Speed Gust Speed Precip Events Conditions
12:20 AM 60.8 °F 60.8 °F 100% 29.67 in 2.5 mi Calm Calm - N/A   Partly Cloudy
12:43 AM 60.8 °F 60.8 °F 100% 29.68 in 1.8 mi Calm Calm - N/A   Clear
12:53 AM 60.1 °F 60.1 °F 100% 29.66 in 1.8 mi Calm Calm - N/A   Clear
12:56 AM 60.8 °F 60.8 °F 100% 29.67 in 3.0 mi Calm Calm - N/A   Clear
1:39 AM 57.2 °F 57.2 °F 100% 29.67 in 2.5 mi NNW 6.9 mph - N/A   Partly Cloudy
1:48 AM 57.2 °F 57.2 °F 100% 29.68 in 6.0 mi NNW 4.6 mph - N/A   Scattered Clouds
1:53 AM 57.0 °F 57.0 °F 100% 29.67 in 8.0 mi North 6.9 mph - N/A   Scattered Clouds
2:25 AM 55.4 °F 55.4 °F 100% 29.67 in 10.0 mi WNW 3.5 mph - N/A   Overcast
2:53 AM 55.9 °F 54.0 °F 93% 29.65 in 10.0 mi NNE 3.5 mph - N/A   Overcast
3:53 AM 55.0 °F 53.1 °F 93% 29.66 in 10.0 mi Calm Calm - N/A   Mostly Cloudy
4:01 AM 53.6 °F 53.6 °F 100% 29.66 in 10.0 mi Calm Calm - N/A   Mostly Cloudy
4:15 AM 53.6 °F 53.6 °F 100% 29.68 in 10.0 mi Calm Calm - N/A   Mostly Cloudy
4:35 AM 53.6 °F 53.6 °F 100% 29.67 in 10.0 mi Calm Calm - N/A   Overcast
4:53 AM 54.0 °F 54.0 °F 100% 29.66 in 10.0 mi Calm Calm - N/A   Overcast
5:53 AM 54.0 °F 53.1 °F 97% 29.68 in 10.0 mi Calm Calm - N/A   Overcast
6:53 AM 54.0 °F 52.0 °F 93% - 10.0 mi WSW 4.6 mph - N/A   Overcast
7:53 AM 54.0 °F 51.1 °F 90% - 10.0 mi NW 3.5 mph - N/A   Overcast
8:53 AM 55.0 °F 48.9 °F 80% - 9.0 mi West 3.5 mph - N/A   Overcast
9:53 AM 57.0 °F 48.9 °F 74% - 10.0 mi Calm Calm - N/A   Mostly Cloudy
10:53 AM 59.0 °F 50.0 °F 72% - 10.0 mi Variable 4.6 mph - N/A   Scattered Clouds
11:53 AM 64.0 °F 48.9 °F 58% - 10.0 mi SW 8.1 mph - N/A   Mostly Cloudy
12:53 PM 66.0 °F 46.9 °F 50% - 10.0 mi West 10.4 mph 16.1 mph N/A   Mostly Cloudy
1:53 PM 61.0 °F 42.1 °F 50% - 10.0 mi WSW 13.8 mph 21.9 mph N/A   Overcast
2:53 PM 64.9 °F 39.9 °F 40% - 10.0 mi West 12.7 mph 19.6 mph N/A   Mostly Cloudy
3:53 PM 64.9 °F 28.9 °F 26% 29.66 in 10.0 mi West 15.0 mph 24.2 mph N/A   Clear
4:53 PM 63.0 °F 27.0 °F 26% 29.69 in 10.0 mi West 18.4 mph - N/A   Clear
5:53 PM 61.0 °F 27.0 °F 27% 29.73 in 10.0 mi West 17.3 mph 24.2 mph N/A   Partly Cloudy
6:53 PM 59.0 °F 24.1 °F 26% 29.71 in 10.0 mi West 11.5 mph - N/A   Partly Cloudy
7:53 PM 57.0 °F 25.0 °F 29% - 10.0 mi West 12.7 mph 20.7 mph N/A   Clear
8:53 PM 54.0 °F 27.0 °F 35% - 10.0 mi West 11.5 mph 19.6 mph N/A   Clear
9:53 PM 52.0 °F 26.1 °F 37% - 10.0 mi West 13.8 mph 20.7 mph N/A   Clear
10:53 PM 50.0 °F 28.9 °F 44% - 10.0 mi WSW 6.9 mph - N/A   Clear
11:53 PM 48.9 °F 28.9 °F 46% - 10.0 mi WSW 5.8 mph - N/A   Clear